K7TSD Weather Reports


Display with metric or nautical units.
time (UTC)temp
F
wind
direction
speed
MPH
gust
MPH
rain 1hr
in
rain 24hr
in
rain mn
in
humidity
%
barometer
mb
20260906220112 82 353 0.0 0.0 0.00 0.00 0.00 44 1012.0
20260906215610 83 327 0.0 0.0 0.00 0.00 0.00 44 1011.7
20260906215109 82 44 0.0 1.0 0.00 0.00 0.00 44 1012.2
20260906214608 83 13 0.0 0.0 0.00 0.00 0.00 45 1012.1
20260906214103 83 61 0.0 0.0 0.00 0.00 0.00 44 1011.8
20260906213601 82 19 0.0 0.0 0.00 0.00 0.00 43 1012.0
20260906213057 82 50 0.0 0.0 0.00 0.00 0.00 45 1012.2
20260906212549 82 24 0.0 0.0 0.00 0.00 0.00 47 1012.5
20260906212045 82 21 0.0 0.0 0.00 0.00 0.00 45 1012.4
20260906211539 83 356 0.0 1.0 0.00 0.00 0.00 45 1012.5
20260906211035 81 10 0.0 0.0 0.00 0.00 0.00 46 1012.5
20260906210530 80 345 0.0 0.0 0.00 0.00 0.00 48 1012.8
20260906210030 82 8 0.0 0.0 0.00 0.00 0.00 46 1012.5
20260906205526 82 4 0.0 0.0 0.00 0.00 0.00 45 1013.1
20260906205022 82 354 0.0 0.0 0.00 0.00 0.00 45 1012.9
20260906204520 81 97 0.0 0.0 0.00 0.00 0.00 46 1013.1
20260906204015 83 22 0.0 0.0 0.00 0.00 0.00 46 1013.1
20260906203510 81 34 0.0 0.0 0.00 0.00 0.00 45 1013.0
20260906203009 81 2 0.0 0.0 0.00 0.00 0.00 46 1013.1
20260906202501 80 20 0.0 0.0 0.00 0.00 0.00 47 1012.8
20260906201955 80 112 0.0 0.0 0.00 0.00 0.00 47 1013.1
20260906201450 80 6 1.0 2.0 0.00 0.00 0.00 46 1012.9
20260906200950 81 343 0.0 0.0 0.00 0.00 0.00 47 1013.0
20260906200447 80 155 0.0 0.0 0.00 0.00 0.00 46 1013.2
20260906195946 80 293 0.0 0.0 0.00 0.00 0.00 46 1013.4
20260906195443 80 10 0.0 0.0 0.00 0.00 0.00 46 1013.4
20260906194939 79 26 0.0 0.0 0.00 0.00 0.00 47 1013.2
20260906194434 80 31 0.0 0.0 0.00 0.00 0.00 47 1013.8
20260906193935 81 345 0.0 0.0 0.00 0.00 0.00 46 1013.7
20260906193431 79 63 0.0 0.0 0.00 0.00 0.00 48 1013.7
20260906192926 78 356 0.0 0.0 0.00 0.00 0.00 47 1013.8
20260906192426 79 346 0.0 0.0 0.00 0.00 0.00 49 1014.0
20260906191925 77 349 0.0 0.0 0.00 0.00 0.00 50 1013.8
20260906191420 78 355 0.0 0.0 0.00 0.00 0.00 50 1014.0
20260906190919 78 13 1.0 2.0 0.00 0.00 0.00 50 1014.2
20260906190418 79 141 0.0 0.0 0.00 0.00 0.00 49 1013.9
20260906185913 78 23 0.0 0.0 0.00 0.00 0.00 50 1014.3
20260906185412 77 112 0.0 0.0 0.00 0.00 0.00 51 1014.6
20260906184912 78 344 0.0 0.0 0.00 0.00 0.00 52 1014.3
20260906184407 77 119 0.0 0.0 0.00 0.00 0.00 50 1014.6
20260906183903 77 321 0.0 0.0 0.00 0.00 0.00 51 1014.4
20260906183359 76 48 0.0 0.0 0.00 0.00 0.00 52 1014.5
20260906182859 75 73 0.0 0.0 0.00 0.00 0.00 54 1014.4
20260906182354 76 4 0.0 0.0 0.00 0.00 0.00 54 1014.7
20260906181849 76 87 0.0 0.0 0.00 0.00 0.00 55 1014.4
20260906181345 76 141 0.0 0.0 0.00 0.00 0.00 53 1014.7
20260906180841 75 359 0.0 0.0 0.00 0.00 0.00 54 1015.0
20260906180335 74 52 0.0 0.0 0.00 0.00 0.00 57 1014.9
20260906175834 75 17 0.0 0.0 0.00 0.00 0.00 55 1015.0
20260906175329 75 5 0.0 0.0 0.00 0.00 0.00 55 1015.2
20260906174828 74 2 0.0 0.0 0.00 0.00 0.00 56 1015.0
20260906174327 73 68 0.0 0.0 0.00 0.00 0.00 56 1015.2
20260906173822 72 127 0.0 0.0 0.00 0.00 0.00 57 1015.3
20260906173318 73 118 0.0 0.0 0.00 0.00 0.00 55 1015.3
20260906172817 72 80 0.0 0.0 0.00 0.00 0.00 56 1015.4
20260906172314 72 62 0.0 0.0 0.00 0.00 0.00 58 1015.6
20260906171814 71 48 0.0 0.0 0.00 0.00 0.00 58 1015.4
20260906171308 72 22 0.0 0.0 0.00 0.00 0.00 58 1015.6
20260906170804 72 319 0.0 0.0 0.00 0.00 0.00 57 1015.7
20260906170300 72 51 0.0 0.0 0.00 0.00 0.00 58 1015.6
20260906165756 70 128 0.0 0.0 0.00 0.00 0.00 57 1015.6
20260906165249 70 33 0.0 0.0 0.00 0.00 0.00 58 1015.7
20260906164749 70 19 0.0 0.0 0.00 0.00 0.00 59 1015.6
20260906164244 71 13 0.0 0.0 0.00 0.00 0.00 57 1015.7
20260906163740 70 335 0.0 0.0 0.00 0.00 0.00 58 1016.0
20260906163236 70 129 0.0 0.0 0.00 0.00 0.00 58 1015.8
20260906162733 71 82 0.0 0.0 0.00 0.00 0.00 56 1015.9
20260906162227 69 14 0.0 0.0 0.00 0.00 0.00 59 1015.6
20260906161722 69 94 0.0 0.0 0.00 0.00 0.00 58 1015.8
20260906161221 69 37 0.0 0.0 0.00 0.00 0.00 57 1016.0
20260906160720 68 359 0.0 0.0 0.00 0.00 0.00 59 1015.8
20260906160220 69 69 0.0 0.0 0.00 0.00 0.00 58 1015.6
20260906155717 68 43 0.0 2.0 0.00 0.00 0.00 59 1015.8
20260906155213 69 21 1.0 2.0 0.00 0.00 0.00 58 1015.8
20260906154708 68 60 0.0 0.0 0.00 0.00 0.00 59 1015.8
20260906154209 68 115 0.0 0.0 0.00 0.00 0.00 59 1015.8
20260906153706 68 317 0.0 0.0 0.00 0.00 0.00 60 1015.8
20260906153201 68 106 0.0 0.0 0.00 0.00 0.00 60 1016.0
20260906152656 67 106 0.0 0.0 0.00 0.00 0.00 61 1016.0
20260906152151 67 137 0.0 0.0 0.00 0.00 0.00 60 1015.6
20260906151646 67 80 0.0 0.0 0.00 0.00 0.00 61 1015.9
20260906151142 66 66 0.0 0.0 0.00 0.00 0.00 61 1015.7
20260906150637 66 72 0.0 0.0 0.00 0.00 0.00 61 1016.0
20260906150132 65 81 0.0 0.0 0.00 0.00 0.00 62 1015.6
20260906145631 65 67 0.0 0.0 0.00 0.00 0.00 63 1015.9
20260906145125 65 67 0.0 0.0 0.00 0.00 0.00 63 1015.9
20260906144620 65 15 0.0 0.0 0.00 0.00 0.00 63 1016.0
20260906144115 64 14 0.0 0.0 0.00 0.00 0.00 63 1015.7
20260906143615 64 16 0.0 0.0 0.00 0.00 0.00 63 1015.8
20260906143112 64 78 0.0 0.0 0.00 0.00 0.00 63 1016.0
20260906142610 64 57 0.0 0.0 0.00 0.00 0.00 63 1016.1
20260906142106 64 117 0.0 0.0 0.00 0.00 0.00 63 1016.0
20260906141605 63 86 0.0 0.0 0.00 0.00 0.00 64 1016.0
20260906141100 63 80 0.0 0.0 0.00 0.00 0.00 64 1016.0
20260906140559 62 114 0.0 0.0 0.00 0.00 0.00 65 1016.1
20260906140054 61 96 0.0 0.0 0.00 0.00 0.00 66 1016.0
20260906135551 60 115 0.0 0.0 0.00 0.00 0.00 66 1015.8
20260906135047 60 117 0.0 0.0 0.00 0.00 0.00 66 1016.0
20260906134542 60 102 0.0 0.0 0.00 0.00 0.00 66 1015.9
20260906134037 59 110 0.0 0.0 0.00 0.00 0.00 65 1015.9
20260906133533 59 100 0.0 0.0 0.00 0.00 0.00 63 1015.8
20260906133028 58 121 0.0 0.0 0.00 0.00 0.00 59 1015.9
20260906132523 58 84 0.0 0.0 0.00 0.00 0.00 62 1015.7
20260906132019 57 121 0.0 0.0 0.00 0.00 0.00 63 1015.7
20260906131514 56 135 0.0 0.0 0.00 0.00 0.00 65 1016.0
20260906131010 56 239 0.0 0.0 0.00 0.00 0.00 65 1015.8
20260906130504 56 151 0.0 0.0 0.00 0.00 0.00 66 1015.9
20260906130004 56 162 0.0 0.0 0.00 0.00 0.00 65 1015.8
20260906125501 55 166 0.0 0.0 0.00 0.00 0.00 66 1016.0
20260906125001 55 152 0.0 0.0 0.00 0.00 0.00 66 1015.9
20260906124456 55 141 0.0 0.0 0.00 0.00 0.00 67 1015.9
20260906123950 55 143 0.0 0.0 0.00 0.00 0.00 66 1015.8
20260906123444 55 171 0.0 0.0 0.00 0.00 0.00 66 1015.8
20260906122938 55 189 0.0 0.0 0.00 0.00 0.00 64 1015.8
20260906122433 55 164 0.0 0.0 0.00 0.00 0.00 63 1015.7
20260906121930 54 104 0.0 0.0 0.00 0.00 0.00 66 1015.8
20260906121426 53 138 0.0 0.0 0.00 0.00 0.00 69 1015.7
20260906120923 56 127 0.0 0.0 0.00 0.00 0.00 66 1015.4
20260906120418 55 154 0.0 0.0 0.00 0.00 0.00 63 1015.7
20260906115914 56 168 0.0 0.0 0.00 0.00 0.00 61 1015.6
20260906115409 57 129 0.0 0.0 0.00 0.00 0.00 60 1015.6
20260906114908 58 119 0.0 0.0 0.00 0.00 0.00 59 1015.4
20260906114403 57 152 0.0 0.0 0.00 0.00 0.00 60 1015.2
20260906113859 57 172 0.0 0.0 0.00 0.00 0.00 61 1015.2
20260906113358 58 152 0.0 0.0 0.00 0.00 0.00 59 1015.3
20260906112854 58 238 0.0 0.0 0.00 0.00 0.00 59 1015.2
20260906112349 59 146 0.0 0.0 0.00 0.00 0.00 57 1015.3
20260906111843 60 148 0.0 0.0 0.00 0.00 0.00 55 1015.4
20260906111338 59 176 0.0 0.0 0.00 0.00 0.00 55 1015.0
20260906110832 59 179 0.0 0.0 0.00 0.00 0.00 57 1015.1
20260906110328 58 179 0.0 0.0 0.00 0.00 0.00 59 1015.3
20260906105828 58 162 0.0 0.0 0.00 0.00 0.00 59 1015.2
20260906105323 58 167 0.0 0.0 0.00 0.00 0.00 58 1015.2
20260906104819 58 133 0.0 0.0 0.00 0.00 0.00 61 1015.2
20260906104317 59 165 0.0 0.0 0.00 0.00 0.00 59 1015.2
20260906103816 59 157 0.0 0.0 0.00 0.00 0.00 59 1015.2
20260906103309 59 225 0.0 0.0 0.00 0.00 0.00 60 1015.2
20260906102806 59 167 0.0 0.0 0.00 0.00 0.00 61 1015.2
20260906102306 59 170 0.0 0.0 0.00 0.00 0.00 60 1015.1
20260906101759 60 170 0.0 0.0 0.00 0.00 0.00 57 1015.4
20260906101254 60 154 0.0 0.0 0.00 0.00 0.00 58 1015.4
20260906100750 59 169 0.0 0.0 0.00 0.00 0.00 59 1015.3
20260906100249 59 138 0.0 0.0 0.00 0.00 0.00 61 1015.2
20260906095744 60 160 0.0 0.0 0.00 0.00 0.00 59 1015.0
20260906095240 62 224 0.0 0.0 0.00 0.00 0.00 57 1015.2
20260906094739 61 237 0.0 0.0 0.00 0.00 0.00 58 1015.6
20260906094233 61 234 0.0 0.0 0.00 0.00 0.00 59 1015.6
20260906093730 62 176 0.0 0.0 0.00 0.00 0.00 57 1015.4
20260906093219 62 162 0.0 0.0 0.00 0.00 0.00 56 1015.3
20260906092715 61 236 0.0 0.0 0.00 0.00 0.00 60 1015.7
20260906092209 60 172 0.0 0.0 0.00 0.00 0.00 61 1015.3
20260906091705 62 211 0.0 0.0 0.00 0.00 0.00 59 1015.7
20260906091201 62 243 0.0 0.0 0.00 0.00 0.00 58 1015.6
20260906090656 62 253 0.0 0.0 0.00 0.00 0.00 58 1015.4
20260906090155 61 165 0.0 0.0 0.00 0.00 0.00 58 1015.8
20260906085655 61 249 0.0 0.0 0.00 0.00 0.00 60 1015.6
20260906085149 61 181 0.0 0.0 0.00 0.00 0.00 60 1015.6
20260906084643 62 254 0.0 0.0 0.00 0.00 0.00 60 1015.4
20260906084142 62 239 0.0 0.0 0.00 0.00 0.00 61 1015.7
20260906083638 63 235 0.0 0.0 0.00 0.00 0.00 58 1015.8
20260906083133 63 209 0.0 0.0 0.00 0.00 0.00 57 1015.7
20260906082628 62 226 0.0 0.0 0.00 0.00 0.00 58 1015.9
20260906082123 62 157 0.0 0.0 0.00 0.00 0.00 59 1016.0
20260906081619 62 137 0.0 0.0 0.00 0.00 0.00 60 1016.1
20260906081114 62 252 0.0 0.0 0.00 0.00 0.00 60 1016.4
20260906080611 62 227 0.0 0.0 0.00 0.00 0.00 60 1016.0
20260906080107 62 264 0.0 0.0 0.00 0.00 0.00 60 1016.3
20260906075601 62 225 0.0 0.0 0.00 0.00 0.00 61 1016.4
20260906075056 62 279 0.0 0.0 0.00 0.00 0.00 61 1016.6
20260906074550 61 242 0.0 0.0 0.00 0.00 0.00 61 1016.4
20260906074049 61 230 0.0 0.0 0.00 0.00 0.00 61 1016.5
20260906073545 62 173 0.0 0.0 0.00 0.00 0.00 60 1016.4
20260906073041 62 212 0.0 0.0 0.00 0.00 0.00 60 1016.5
20260906072535 62 152 0.0 0.0 0.00 0.00 0.00 59 1016.4
20260906072032 62 217 0.0 0.0 0.00 0.00 0.00 58 1016.7
20260906071528 62 166 0.0 0.0 0.00 0.00 0.00 60 1016.5
20260906071022 61 180 0.0 0.0 0.00 0.00 0.00 60 1016.5
20260906070519 61 231 0.0 0.0 0.00 0.00 0.00 60 1016.6
20260906070014 61 172 0.0 0.0 0.00 0.00 0.00 61 1016.5
20260906065514 61 161 0.0 0.0 0.00 0.00 0.00 61 1016.6
20260906065010 61 239 0.0 0.0 0.00 0.00 0.00 61 1016.8
20260906064505 61 239 0.0 0.0 0.00 0.00 0.00 61 1016.7
20260906064000 61 247 0.0 0.0 0.00 0.00 0.00 61 1016.7
20260906063455 61 206 0.0 0.0 0.00 0.00 0.00 61 1016.8
20260906062950 62 163 0.0 0.0 0.00 0.00 0.00 60 1016.7
20260906062445 61 212 0.0 0.0 0.00 0.00 0.00 61 1016.9
20260906061940 62 112 0.0 0.0 0.00 0.00 0.00 61 1016.7
20260906061436 63 257 0.0 0.0 0.00 0.00 0.00 59 1016.8
20260906060930 62 201 0.0 0.0 0.00 0.00 0.00 59 1017.1
20260906060427 62 196 0.0 0.0 0.00 0.00 0.00 60 1016.9
20260906055923 62 217 0.0 0.0 0.00 0.00 0.00 60 1017.2
20260906055419 62 159 0.0 0.0 0.00 0.00 0.00 59 1016.9
20260906054914 62 251 0.0 0.0 0.00 0.00 0.00 59 1017.2
20260906054409 62 216 0.0 0.0 0.00 0.00 0.00 60 1016.9
20260906053905 62 222 0.0 0.0 0.00 0.00 0.00 59 1016.8
20260906053401 63 245 0.0 0.0 0.00 0.00 0.00 58 1017.2
20260906052856 62 169 0.0 0.0 0.00 0.00 0.00 59 1017.2
20260906052352 63 220 0.0 0.0 0.00 0.00 0.00 59 1017.1
20260906051849 63 145 0.0 0.0 0.00 0.00 0.00 58 1017.3
20260906051349 62 243 0.0 0.0 0.00 0.00 0.00 58 1017.3
20260906050845 62 178 0.0 0.0 0.00 0.00 0.00 59 1017.3
20260906050339 63 173 0.0 0.0 0.00 0.00 0.00 59 1017.6
20260906045838 63 147 0.0 0.0 0.00 0.00 0.00 59 1017.3
20260906045332 63 220 0.0 0.0 0.00 0.00 0.00 59 1017.3
20260906044829 63 149 0.0 0.0 0.00 0.00 0.00 58 1017.2
20260906044323 63 176 0.0 0.0 0.00 0.00 0.00 58 1017.4
20260906043819 63 217 0.0 0.0 0.00 0.00 0.00 59 1017.3
20260906043314 64 264 0.0 0.0 0.00 0.00 0.00 56 1017.4
20260906042809 64 226 0.0 0.0 0.00 0.00 0.00 56 1017.6
20260906042308 63 209 0.0 0.0 0.00 0.00 0.00 57 1017.3
20260906041804 63 136 0.0 0.0 0.00 0.00 0.00 58 1017.6
20260906041259 64 149 0.0 0.0 0.00 0.00 0.00 56 1017.5
20260906040754 63 127 0.0 0.0 0.00 0.00 0.00 57 1017.3
20260906040249 64 127 0.0 0.0 0.00 0.00 0.00 56 1017.1
20260906035744 63 337 0.0 0.0 0.00 0.00 0.00 57 1017.4
20260906035240 64 185 0.0 0.0 0.00 0.00 0.00 56 1017.1
20260906034740 64 260 0.0 0.0 0.00 0.00 0.00 56 1016.9
20260906034235 65 249 0.0 0.0 0.00 0.00 0.00 55 1017.2
20260906033731 65 226 0.0 0.0 0.00 0.00 0.00 55 1017.2
20260906033230 65 218 0.0 0.0 0.00 0.00 0.00 54 1016.8
20260906032727 65 257 0.0 0.0 0.00 0.00 0.00 55 1017.3
20260906032227 64 196 0.0 0.0 0.00 0.00 0.00 55 1017.3
20260906031722 64 259 0.0 0.0 0.00 0.00 0.00 56 1016.8
20260906031218 65 253 0.0 0.0 0.00 0.00 0.00 55 1017.2
20260906030717 65 244 0.0 0.0 0.00 0.00 0.00 54 1016.9
20260906030212 65 259 0.0 0.0 0.00 0.00 0.00 54 1016.9
20260906025712 66 244 0.0 0.0 0.00 0.00 0.00 55 1016.8
20260906025212 65 297 0.0 0.0 0.00 0.00 0.00 54 1016.8
20260906024711 66 289 0.0 0.0 0.00 0.00 0.00 54 1016.9
20260906024210 66 224 0.0 0.0 0.00 0.00 0.00 53 1016.9
20260906023706 66 211 0.0 0.0 0.00 0.00 0.00 54 1016.8
20260906023201 66 202 0.0 0.0 0.00 0.00 0.00 53 1016.6
20260906022656 65 206 0.0 0.0 0.00 0.00 0.00 54 1016.6
20260906022152 65 230 0.0 0.0 0.00 0.00 0.00 55 1016.6
20260906021647 65 256 0.0 0.0 0.00 0.00 0.00 55 1016.5
20260906021146 65 250 0.0 0.0 0.00 0.00 0.00 56 1016.4
20260906020641 66 134 0.0 0.0 0.00 0.00 0.00 55 1016.8
20260906020136 66 166 0.0 0.0 0.00 0.00 0.00 54 1016.4
20260906015630 66 256 0.0 0.0 0.00 0.00 0.00 55 1016.6
20260906015128 65 223 0.0 0.0 0.00 0.00 0.00 55 1016.8
20260906014623 65 278 0.0 0.0 0.00 0.00 0.00 56 1016.6
20260906014120 65 254 0.0 0.0 0.00 0.00 0.00 56 1016.5
20260906013614 66 148 0.0 0.0 0.00 0.00 0.00 56 1016.0
20260906013110 66 271 0.0 0.0 0.00 0.00 0.00 55 1016.4
20260906012604 66 263 0.0 0.0 0.00 0.00 0.00 55 1016.6
20260906012059 67 175 0.0 0.0 0.00 0.00 0.00 55 1016.4
20260906011555 67 184 0.0 0.0 0.00 0.00 0.00 55 1016.6
20260906011054 68 263 0.0 0.0 0.00 0.00 0.00 53 1016.4
20260906010550 68 233 0.0 0.0 0.00 0.00 0.00 53 1016.4
20260906010047 69 205 0.0 0.0 0.00 0.00 0.00 53 1016.3
20260906005545 69 198 0.0 0.0 0.00 0.00 0.00 52 1016.5
20260906005044 70 235 0.0 0.0 0.00 0.00 0.00 51 1016.5
20260906004544 71 163 0.0 0.0 0.00 0.00 0.00 49 1016.4
20260906004039 73 207 0.0 0.0 0.00 0.00 0.00 47 1016.4
20260906003534 74 94 0.0 0.0 0.00 0.00 0.00 45 1016.4
20260906003030 75 139 0.0 0.0 0.00 0.00 0.00 44 1016.5
20260906002525 75 143 0.0 0.0 0.00 0.00 0.00 44 1016.5
20260906002020 75 100 0.0 0.0 0.00 0.00 0.00 44 1016.3
20260906001515 74 227 0.0 0.0 0.00 0.00 0.00 44 1016.5
20260906001009 75 40 0.0 0.0 0.00 0.00 0.00 43 1016.5
20260906000506 74 121 0.0 0.0 0.00 0.00 0.00 44 1016.6
20260905235959 75 146 0.0 0.0 0.00 0.00 0.00 44 1016.5
20260905235453 77 213 0.0 0.0 0.00 0.00 0.00 41 1016.1
20260905234948 75 350 0.0 0.0 0.00 0.00 0.00 41 1016.5
20260905234445 77 8 0.0 0.0 0.00 0.00 0.00 41 1016.3
20260905233944 77 324 0.0 0.0 0.00 0.00 0.00 41 1016.3
20260905233440 77 237 0.0 0.0 0.00 0.00 0.00 41 1016.3
20260905232938 78 352 0.0 0.0 0.00 0.00 0.00 38 1016.3
20260905232435 79 23 0.0 0.0 0.00 0.00 0.00 38 1016.3
20260905231930 79 124 0.0 0.0 0.00 0.00 0.00 38 1016.4
20260905231426 78 334 0.0 0.0 0.00 0.00 0.00 39 1016.3
20260905230922 78 338 0.0 0.0 0.00 0.00 0.00 39 1016.3
20260905230420 78 329 0.0 0.0 0.00 0.00 0.00 40 1016.6
20260905225919 78 108 0.0 0.0 0.00 0.00 0.00 39 1016.1
20260905225414 77 129 0.0 0.0 0.00 0.00 0.00 39 1016.5
20260905224904 78 344 0.0 0.0 0.00 0.00 0.00 39 1016.5
20260905224359 78 343 0.0 0.0 0.00 0.00 0.00 39 1016.5
20260905223853 77 335 0.0 0.0 0.00 0.00 0.00 40 1016.6
20260905223352 79 355 0.0 0.0 0.00 0.00 0.00 39 1016.1
20260905222851 80 108 0.0 0.0 0.00 0.00 0.00 38 1016.5
20260905222350 78 71 0.0 0.0 0.00 0.00 0.00 40 1016.5
20260905221846 77 353 0.0 0.0 0.00 0.00 0.00 40 1016.5
20260905221343 78 315 1.0 2.0 0.00 0.00 0.00 39 1016.6
20260905220838 79 36 0.0 0.0 0.00 0.00 0.00 39 1016.6